[Iaude] MPEC P95: 2020 PU2 [a=0.87,e=0.24,i=25.5,H=25.5]

mpec at marsden.cfa.harvard.edu mpec at marsden.cfa.harvard.edu
Fri Aug 14 22:14:00 EDT 2020


M.P.E.C. 2020-P95                               Issued 2020 August 15, 02:12 UT

     The Minor Planet Electronic Circulars contain information on unusual
         minor planets and routine data on comets.  They are published
    on behalf of Division F of the International Astronomical Union by the
          Minor Planet Center, Smithsonian Astrophysical Observatory,
                          Cambridge, MA 02138, U.S.A.

             Prepared using the Tamkin Foundation Computer Network

                              MPC at CFA.HARVARD.EDU
            URL https://www.minorplanetcenter.net/    ISSN 1523-6714

                                    2020 PU2                                    


Observations:
     K20P02U* C2020 08 13.36975 22 55 20.85 +09 31 53.1          20.5 GVEP095G96
     K20P02U  C2020 08 13.37544 22 55 13.24 +09 33 42.6          20.6 GVEP095G96
     K20P02U  C2020 08 13.38112 22 55 05.65 +09 35 31.6          21.2 GVEP095G96
     K20P02U  C2020 08 13.38681 22 54 58.03 +09 37 20.1          20.8 GVEP095G96
     K20P02U  C2020 08 13.43558 22 53 53.17 +09 52 53.4          19.8 GVEP095I52
     K20P02U  C2020 08 13.43792 22 53 50.05 +09 53 37.6          19.5 GVEP095I52
     K20P02U  C2020 08 13.44024 22 53 46.95 +09 54 22.3          19.7 GVEP095I52
     K20P02U  C2020 08 13.47535 22 53 00.28 +10 05 33.1          19.8 GVEP095I52
     K20P02U  C2020 08 13.47768 22 52 57.16 +10 06 17.7          19.4 GVEP095I52
     K20P02U  C2020 08 13.48000 22 52 54.06 +10 07 01.8          19.8 GVEP095I52
     K20P02U KC2020 08 14.02033922 41 11.46 +13 00 13.9          21.0 GVEP095L01
     K20P02U pC2020 08 14.02873622 40 59.82 +13 02 55.2          21.1 GVEP095L01
     K20P02U KC2020 08 14.03187822 40 55.52 +13 03 56.5          21.0 GVEP095L01
     K20P02U KC2020 08 14.03511722 40 51.00 +13 04 57.8          21.0 GVEP095L01
     K20P02U  C2020 08 14.35521 22 33 39.35 +14 48 23.0          20.3 GVEP095I52
     K20P02U  C2020 08 14.35644 22 33 37.59 +14 48 46.0          21.0 GVEP095I52
     K20P02U  C2020 08 14.35767 22 33 35.86 +14 49 10.5                VEP095I52
     K20P02U  C2020 08 14.35890 22 33 34.05 +14 49 34.6          20.5 GVEP095I52
     K20P02U KC2020 08 14.42825822 32 02.609+15 12 17.09         20.74GVEP095F52
     K20P02U KC2020 08 15.05054122 17 30.13 +18 28 29.8          20.7 GVEP095I93
     K20P02U KC2020 08 15.05903522 17 17.64 +18 31 08.8          20.4 GVEP095I93

Observer details:
F52 Pan-STARRS 2, Haleakala.  Observers J. Bulger, K. Chambers, T. Dukes, T.
    Lowe, A. Schultz, M. Willman.  Measurers S. Chastel, M. Huber, Y.
    Ramanjooloo, R. Wainscoat, R. Weryk.  1.8-m Ritchey-Chretien + CCD.
G96 Mt. Lemmon Survey.  Observer G. J. Leonard.  Measurers E. J. Christensen,
    G. A. Farneth, D. C. Fuls, A. R. Gibbs, A. D. Grauer, H. Groeller, R. A.
    Kowalski, S. M. Larson, G. J. Leonard, T. A. Pruyne, D. Rankin, R. L.
    Seaman, F. C. Shelly, K. W. Wierzchos.  1.5-m reflector + 10K CCD.
I52 Steward Observatory, Mt. Lemmon Station.  Observer K. W. Wierzchos.
    Measurers E. J. Christensen, G. A. Farneth, D. C. Fuls, A. R. Gibbs, A. D.
    Grauer, H. Groeller, R. A. Kowalski, S. M. Larson, G. J. Leonard, T. A.
    Pruyne, D. Rankin, R. L. Seaman, F. C. Shelly, K. W. Wierzchos.  1.0-m
    reflector + CCD.
I93 St Pardon de Conques.  Observer F. Losse.  0.40-m f/3.7 reflector + CCD.
L01 Visnjan Observatory, Tican.  Observers K. Korlevic, K. Floricic, F.
    Hrzenjak, A. Macan, I. Paleka, E. Pettarin, V. Pezo, D. Pujagic.  Measurer
    K. Floricic.  1.0-m f/2.9 reflector + CCD.

Orbital elements:
2020 PU2                                                 Earth MOID = 0.0512 AU
Epoch 2020 May 31.0 TT = JDT 2459000.5                  Veres
M 113.07633              (2000.0)            P               Q
n   1.21968147     Peri.  166.64902     -0.61827792     -0.73665637
a   0.8675711      Node   320.50442     +0.67573578     -0.32019257
e   0.2371651      Incl.   25.51752     +0.40138954     -0.59566275
P   0.81           H   25.5           G   0.15           U   7
Residuals in seconds of arc
200813 G96  0.8+  0.2-    200813 I52  0.3+  0.2-    200814 I52  0.2+  0.1+
200813 G96  0.1+  0.3+    200813 I52  0.1-  0.2-    200814 I52  0.1+  0.5-
200813 G96  0.3-  0.5+    200813 I52  0.4-  0.4-    200814 I52  0.4+  0.3+
200813 G96  1.0-  0.1+    200814 L01  0.0   0.4+    200814 I52  0.5-  0.8+
200813 I52  0.3+  0.2+    200814 L01  0.2-  0.3-    200814 F52  0.4-  0.0
200813 I52  0.2+  0.3-    200814 L01  0.5+  0.4+    200815 I93  0.1+  0.1-
200813 I52  0.0   0.0     200814 L01  0.0   0.8-    200815 I93  0.1-  0.1-

Ephemeris:
2020 PU2                 a,e,i = 0.87, 0.24, 26                  q = 0.6618
Date    TT    R. A. (2000) Decl.     Delta      r    Elong.  Phase     V
2020 07 16    02 05 38.3 -36 09 41   0.2251  1.0709    97.9    70.1    24.9
...
2020 07 31    01 27 07.4 -27 53 21   0.1235  1.0722   114.5    59.5    23.2
...
2020 08 08    00 23 53.6 -13 26 26   0.07506 1.0672   133.7    43.4    21.7
...
2020 08 14    22 41 40.1 +12 54 49   0.05602 1.0610   148.1    30.3    20.7
2020 08 15    22 18 43.9 +18 13 35   0.05587 1.0597   146.2    32.1    20.7
2020 08 16    21 54 39.4 +23 16 29   0.05673 1.0584   142.9    35.3    20.8
...
2020 08 22    19 36 44.8 +41 15 54   0.07841 1.0493   116.9    59.3    22.2
...
2020 08 30    17 55 16.9 +45 07 44   0.1265  1.0338    97.5    75.5    23.7
...
2020 09 14    16 50 10.4 +44 20 51   0.2227  0.9949    80.8    86.4    25.3

M. P. C. Staff               (C) Copyright 2020 MPC           M.P.E.C. 2020-P95




More information about the Iaude mailing list